Location: San Geminiano
(44.7333°N, 10.4167°E)
Time: 20:22:39
(UTC+00:00)

Daily predictions for brighter satellites

Satellite Brightness Start Highest point End
(mag) Time Altitude Azimuth Time Altitude Azimuth Time Altitude Azimuth
Cosmos 1464 Rocket 4.2 16:04:58 10° SSE 16:11:08 55° E 16:17:22 10° NNE
NOAA 6 4.3 16:08:11 10° SE 16:13:06 47° ENE 16:18:02 10° N
Cosmos 1461 4.0 16:09:10 10° WSW 16:13:10 40° NW 16:17:04 10° NNE
Cosmos 1271 Rocket 2.9 16:15:18 10° SSW 16:19:13 81° WNW 16:23:11 10° N
NOSS 2-1 (E) 3.4 16:16:48 10° SW 16:20:02 55° NW 16:23:19 10° NNE
Cosmos 1408 Rocket 3.8 16:16:00 10° N 16:20:11 45° ENE 16:24:23 10° SSE
CZ-4B R/B 3.0 16:17:39 10° SSE 16:21:52 89° W 16:25:54 10° NNW
Cosmos 1697 Rocket 3.7 16:19:37 10° N 16:24:10 24° NE 16:28:40 10° ESE
Cosmos 1743 Rocket 4.4 16:20:44 10° NNE 16:24:29 28° ENE 16:28:12 10° SE
Cosmos 1980 Rocket 3.7 16:22:20 10° N 16:25:38 15° NE 16:28:49 10° ENE
Cosmos 1763 Rocket 4.4 16:22:19 10° SSE 16:26:29 27° E 16:30:42 10° NE
deb Kosmos-1763 3.8 16:23:12 10° SSW 16:26:35 68° ESE 16:30:00 10° NNE
Lacrosse 5 2.8 16:22:51 10° NW 16:27:50 54° SW 16:32:47 10° SSE
Nadezhda 4 Rocket 4.1 16:21:48 10° N 16:28:00 55° ENE 16:34:11 10° SSE
USA 267 3.7 16:22:18 10° NE 16:28:40 56° NNW 16:35:00 10° WSW
USA 305 3.7 16:25:25 10° W 16:29:26 42° NNW 16:33:22 11° NE
CZ-2C R/B 3.2 16:25:03 10° S 16:30:05 75° WSW 16:34:56 10° NNW
Cosmos 1656 3.9 16:25:25 10° NNW 16:30:44 47° ENE 16:36:06 10° SE
CZ-4B DEB 4.3 16:27:01 10° SE 16:32:23 55° ENE 16:37:46 10° N
Cosmos 2082 Rocket 3.9 16:33:16 10° ESE 16:35:28 12° E 16:36:39 12° E
Cosmos 1340 Rocket 3.2 16:33:16 10° N 16:37:09 42° ENE 16:41:02 10° SSE
Cosmos 1092 Rocket 4.4 16:32:16 10° N 16:38:12 40° ENE 16:44:06 10° SE
USA 229 DEB 4.2 16:32:03 10° NNW 16:38:57 44° NE 16:46:17 10° ESE
USA 229 4.3 16:32:09 10° NNW 16:39:03 44° NE 16:46:22 10° ESE
COSMOS 2406 4.3 16:35:53 10° SSE 16:40:21 24° ESE 16:43:56 14° ENE
AQUARIUS 4.1 16:36:47 10° SSE 16:41:14 71° ENE 16:45:43 10° N
Cosmos 990 Rocket 4.3 16:37:15 10° N 16:42:13 43° ENE 16:47:07 10° SE
Lacrosse 5 rocket 3.4 16:41:11 10° NNW 16:43:12 14° N 16:45:17 10° NNE
ATLAS 2AS CENTAUR R/B 4.4 16:38:52 10° W 16:45:15 27° NNW 16:51:26 10° NNE
USA 276 2.8 16:43:17 10° WNW 16:46:14 36° NNE 16:47:51 21° ENE
ATLAS CENTAUR R/B 3.5 16:35:57 10° SSW 16:47:10 56° SE 16:50:57 17° ENE
Cosmos 1933 4.1 16:44:10 10° SSE 16:47:46 32° E 16:51:19 10° NNE
PAYLOAD B 4.3 16:42:31 10° SSE 16:48:00 59° ENE 16:53:31 10° N
SJ 16-02 2.4 16:46:45 10° NNW 16:50:59 50° WSW 16:55:13 10° S
Cosmos 2034 Rocket 3.9 16:48:24 10° S 16:54:34 81° E 17:00:45 10° N
Cosmos 1500 Rocket 3.5 16:50:37 10° N 16:55:04 62° E 16:59:26 10° SSE
TIMED 4.5 16:52:00 10° SSW 16:56:22 86° ESE 17:00:45 10° NNE
CORIOLIS 4.3 16:53:31 10° S 16:58:54 80° WSW 17:04:20 10° NNW
CZ-2D R/B 3.1 16:56:39 10° SSE 17:00:28 71° ENE 17:04:17 10° N
USA 306 4.1 16:57:38 10° W 17:01:29 32° NNW 17:04:00 18° NE
USA 234 4.0 16:55:42 10° SSE 17:02:04 55° SW 17:08:28 10° WNW
NOSS 3-1 (A) 4.1 16:55:13 10° NNW 17:02:35 62° NE 17:11:13 10° SE
Meteor 1-20 Rocket 4.2 16:59:28 10° N 17:05:17 70° ENE 17:11:06 10° SSE
NOSS 3-1 (C) 4.1 16:58:13 10° NW 17:05:47 90° NE 17:14:38 10° SE
Cosmos 1805 Rocket 3.7 17:01:42 10° N 17:05:54 47° ENE 17:10:04 10° SSE
Cosmos 1842 Rocket 4.2 17:02:02 10° SSW 17:06:25 60° W 17:10:51 10° N
Cosmos 1833 Rocket 2.9 17:02:31 10° S 17:07:54 50° ESE 17:11:51 18° NE
Cosmos 2360 4.4 17:05:28 10° NNW 17:11:00 46° ENE 17:16:30 10° SE
PSLV R/B 3.9 17:08:45 10° S 17:12:24 69° WSW 17:16:06 10° NNW
CZ-4B R/B 3.1 17:07:18 10° SSE 17:12:42 65° ENE 17:18:02 10° N
SMAP 4.3 17:12:23 10° S 17:16:49 43° W 17:21:16 10° NNW
ARGOS 3.2 17:11:43 10° SSE 17:16:59 56° ENE 17:22:17 10° N
Sich 1 3.1 17:12:57 10° N 17:17:06 48° ENE 17:21:15 10° SSE
USA 307 4.2 17:14:14 10° WNW 17:18:02 30° NNW 17:19:51 22° NNE
ERBS 3.8 17:15:30 10° W 17:18:17 27° NNW 17:19:27 21° N
H-2A R/B 2.0 17:13:24 10° SSE 17:18:39 88° WSW 17:23:48 10° NNW
Cosmos 1634 Rocket 4.0 17:13:55 10° S 17:20:06 62° E 17:26:21 10° NNE
Cosmos 1898 Rocket 3.4 17:15:44 10° NNW 17:21:00 68° ENE 17:26:11 10° SSE
MOS 1-B Rocket 3.9 17:16:01 10° NNE 17:21:47 80° ESE 17:28:14 10° SSW
COSMOS 2455 3.4 17:18:52 10° S 17:24:15 36° ESE 17:25:52 31° E
Cosmos 2221 4.3 17:22:24 10° SW 17:26:12 31° WNW 17:30:02 10° N
Cosmos 468 Rocket 3.9 17:21:09 10° SSW 17:26:17 87° ESE 17:30:21 17° NNE
ATLAS CENTAUR R/B 3.9 17:23:38 10° WNW 17:26:19 16° NNW 17:29:06 10° N
CZ-4 R/B 4.3 17:24:33 10° SSE 17:28:37 65° ENE 17:32:44 10° N
Landsat 5 3.5 17:27:18 36° NE 17:28:43 54° E 17:32:42 10° S
Cosmos 44 3.7 17:24:47 10° NW 17:29:29 60° WSW 17:33:54 10° SSE
SL-19 R/B 4.5 17:24:56 10° NNE 17:30:58 82° ESE 17:37:27 10° SSW
COSMO-SKYMED 1 2.4 17:29:13 16° NNE 17:32:38 84° ESE 17:36:59 10° SSW
Cosmos 540 Rocket 3.4 17:29:56 10° S 17:34:57 63° ESE 17:37:03 34° NE
SL-08 RB Rocket 3.7 17:30:27 10° SSE 17:34:59 55° ENE 17:39:32 10° N
deb Chang Zheng 4 3.6 17:31:06 10° SSE 17:35:24 81° WSW 17:39:45 10° NNW
Cosmos 2026 Rocket 3.9 17:29:17 10° N 17:35:30 86° E 17:41:35 10° S
SJ-11-01 4.2 17:34:09 10° SSE 17:38:54 88° ENE 17:43:41 10° NNW
CZ-2C R/B 2.5 17:33:38 10° NNE 17:38:54 90° ESE 17:44:04 10° SSW
Okean O Rocket 1.5 17:35:13 10° SSE 17:39:40 89° WNW 17:44:09 10° NNW
USA 308 4.3 17:36:50 10° WNW 17:40:27 26° NNW 17:41:12 25° N
Cosmos 1500 3.9 17:37:41 10° N 17:44:46 13° SSE 17:45:11 10° SSE
ISS -1.9 17:42:54 10° NW 17:44:55 23° NNW 17:44:55 23° NNW
Meteor 2-21 4.4 17:40:53 10° N 17:47:01 86° W 17:53:05 10° S
YAOGAN 1 4.3 17:50:23 20° N 17:50:23 20° N 17:51:48 10° N
CZ-4C R/B 3.3 17:41:25 10° NNW 17:48:04 42° NE 17:49:48 38° ENE
Meteor 1-5 Rocket 4.2 17:50:16 10° N 17:56:14 64° ENE 18:02:07 10° SSE
Cosmos 2084 3.6 17:54:53 10° NW 17:59:12 76° SW 17:59:42 66° S
GEOS 3 Rocket 3.7 17:56:54 26° SSE 17:59:58 77° SW 18:05:12 10° NW
NOAA 15 4.4 17:55:01 10° SSE 18:00:18 74° ENE 18:05:35 10° N
Cosmos 2369 3.6 17:54:39 10° NNW 18:00:25 78° ENE 18:02:24 43° SE
Cosmos 2322 Rocket 4.3 17:56:46 10° N 17:57:35 12° N 17:57:35 12° N
Cosmos 1782 3.4 17:57:35 10° SSW 18:01:30 54° W 18:02:36 40° NNW
DMSP B5D2-2 4.2 18:06:37 55° SSE 18:06:37 55° SSE 18:10:54 10° S
Cosmos 1697 Rocket 3.1 18:03:00 10° NNW 18:08:33 62° WSW 18:14:04 10° S
Cosmos 1937 Rocket 3.8 18:03:32 10° NNW 18:08:49 66° WSW 18:14:04 10° S
Cosmos 841 Rocket 3.4 18:04:22 10° SSW 18:09:32 85° WNW 18:10:10 69° N
NOSS 2-2 (C) 4.3 18:05:22 10° NNW 18:10:35 69° NE 18:10:59 67° ENE
Cosmos 1980 Rocket 2.0 18:04:58 10° NNW 18:10:40 74° ENE 18:10:40 74° ENE
USA 267 4.3 18:08:54 27° NNE 18:10:53 32° N 18:16:30 10° WNW
SL-16 R/B 4.1 18:10:12 10° N 18:11:40 16° N 18:11:40 16° N
Cosmos 2082 Rocket 2.0 18:12:56 10° SSW 18:18:33 84° SE 18:18:33 84° SE
Cosmos 1151 Rocket 4.3 18:18:19 10° SSW 18:20:53 34° SSW 18:20:53 34° SSW
Lacrosse 5 rocket 4.0 18:20:31 10° NNW 18:20:53 12° NNW 18:20:53 12° NNW
COSMOS 2406 3.8 18:18:36 10° SW 18:24:15 56° WNW 18:26:02 40° N
Meteor 2-6 Rocket 4.4 18:20:16 10° S 18:25:12 65° S 18:25:12 65° S
Cosmos 2278 4.3 18:20:46 10° NNW 18:24:47 46° N 18:24:47 46° N
Cosmos 372 Rocket 4.5 18:30:34 10° NNW 18:35:14 57° W 18:35:14 57° W
Cosmos 1833 Rocket 4.3 18:47:15 10° WSW 18:52:05 29° NW 18:53:35 25° NNW
COSMOS 2455 3.9 19:04:20 10° WSW 19:09:04 41° WNW 19:09:04 41° WNW
CZ-4C R/B 3.7 19:29:46 10° NW 19:35:02 48° WNW 19:35:02 48° WNW
